Time,TemperatureF,DewpointF,PressureIn,WindDirection,WindDirectionDegrees,WindSpeedMPH,WindSpeedGustMPH,Humidity,HourlyPrecipIn,Conditions,Clouds,dailyrainin,SoftwareType,DateUTC
2013-06-15 21:25:00,83.4,78.8,29.91,South,188,10.0,10.0,86,0.00,,,0.00,Wunderground v.1.15,2013-06-16 03:25:00,
2013-06-15 21:30:00,83.4,78.8,29.91,South,187,9.0,18.0,86,0.00,,,0.00,Wunderground v.1.15,2013-06-16 03:30:00,
2013-06-15 21:35:00,83.4,78.8,29.92,South,187,10.0,10.0,86,0.00,,,0.00,Wunderground v.1.15,2013-06-16 03:35:00,
2013-06-15 21:40:00,83.4,78.4,29.92,South,188,8.0,18.0,85,0.00,,,0.00,Wunderground v.1.15,2013-06-16 03:40:00,
2013-06-15 21:45:00,83.0,78.0,29.92,SSW,193,6.0,18.0,85,0.00,,,0.00,Wunderground v.1.15,2013-06-16 03:45:00,
2013-06-15 21:50:00,83.1,78.1,29.92,SSW,203,8.0,18.0,85,0.00,,,0.00,Wunderground v.1.15,2013-06-16 03:50:00,
2013-06-15 21:55:00,83.2,78.6,29.92,South,188,8.0,18.0,86,0.00,,,0.00,Wunderground v.1.15,2013-06-16 03:55:00,
2013-06-15 22:00:00,83.3,78.7,29.92,South,187,8.0,18.0,86,0.00,,,0.00,Wunderground v.1.15,2013-06-16 04:00:00,
2013-06-15 22:06:00,83.2,78.6,29.92,SSE,162,8.0,18.0,86,0.00,,,0.00,Wunderground v.1.15,2013-06-16 04:06:00,
2013-06-15 22:10:00,83.2,78.2,29.92,SE,139,10.0,14.0,85,0.00,,,0.00,Wunderground v.1.15,2013-06-16 04:10:00,
2013-06-15 22:15:00,83.3,78.7,29.92,SE,129,11.0,14.0,86,0.00,,,0.00,Wunderground v.1.15,2013-06-16 04:15:00,
2013-06-15 22:20:00,83.4,78.8,29.92,SE,138,11.0,11.0,86,0.00,,,0.00,Wunderground v.1.15,2013-06-16 04:20:00,
2013-06-15 22:25:00,83.2,78.2,29.93,SSE,150,11.0,14.0,85,0.00,,,0.00,Wunderground v.1.15,2013-06-16 04:25:00,
2013-06-15 22:30:00,83.4,78.8,29.93,SE,139,10.0,10.0,86,0.00,,,0.00,Wunderground v.1.15,2013-06-16 04:30:00,
2013-06-15 22:35:00,83.1,78.1,29.93,South,172,9.0,14.0,85,0.00,,,0.00,Wunderground v.1.15,2013-06-16 04:35:00,
2013-06-15 22:40:00,83.2,78.6,29.92,SE,139,8.0,14.0,86,0.00,,,0.00,Wunderground v.1.15,2013-06-16 04:40:00,
2013-06-15 22:45:00,83.2,78.6,29.92,SE,139,6.0,14.0,86,0.00,,,0.00,Wunderground v.1.15,2013-06-16 04:45:00,
2013-06-15 22:50:00,83.0,78.0,29.92,South,169,8.0,14.0,85,0.00,,,0.00,Wunderground v.1.15,2013-06-16 04:50:00,
2013-06-15 22:55:00,83.1,78.5,29.93,SSE,158,8.0,14.0,86,0.00,,,0.00,Wunderground v.1.15,2013-06-16 04:55:00,
2013-06-15 23:00:00,83.0,78.4,29.93,SSE,153,7.0,14.0,86,0.00,,,0.00,Wunderground v.1.15,2013-06-16 05:00:00,
2013-06-15 23:05:00,83.0,78.4,29.93,SSE,150,7.0,14.0,86,0.00,,,0.00,Wunderground v.1.15,2013-06-16 05:05:00,
2013-06-15 23:10:00,83.0,78.7,29.93,SE,141,7.0,14.0,87,0.00,,,0.00,Wunderground v.1.15,2013-06-16 05:10:00,
2013-06-15 23:15:00,83.1,78.8,29.92,SSE,150,8.0,14.0,87,0.00,,,0.00,Wunderground v.1.15,2013-06-16 05:15:00,
2013-06-15 23:20:00,83.0,78.7,29.93,SE,146,8.0,8.0,87,0.00,,,0.00,Wunderground v.1.15,2013-06-16 05:20:00,
2013-06-15 23:25:00,83.0,78.7,29.93,SE,139,7.0,14.0,87,0.00,,,0.00,Wunderground v.1.15,2013-06-16 05:25:00,
2013-06-15 23:30:00,83.0,78.7,29.92,SE,145,8.0,14.0,87,0.00,,,0.00,Wunderground v.1.15,2013-06-16 05:30:00,
2013-06-15 23:35:00,83.0,78.7,29.92,SE,145,8.0,15.0,87,0.00,,,0.00,Wunderground v.1.15,2013-06-16 05:35:00,
2013-06-15 23:40:00,83.0,78.7,29.93,South,171,8.0,14.0,87,0.00,,,0.00,Wunderground v.1.15,2013-06-16 05:40:00,
2013-06-15 23:45:00,83.1,78.8,29.92,SSE,156,7.0,14.0,87,0.00,,,0.00,Wunderground v.1.15,2013-06-16 05:45:00,
2013-06-15 23:50:00,82.9,78.6,29.92,SSE,148,7.0,14.0,87,0.00,,,0.00,Wunderground v.1.15,2013-06-16 05:50:00,
2013-06-15 23:55:00,82.9,79.0,29.92,SSE,148,7.0,14.0,88,0.00,,,0.00,Wunderground v.1.15,2013-06-16 05:55:00,